ROMMA est une association bénévole à but non lucratif. Votre soutien est indispensable : ADHERER à ROMMA ou FAIRE un DON

Crêts du Salève - (74, Haute-Savoie)

Salève (1270 m)   Longitude: 6° 10' 28'' E   Latitude: 46° 7' 42'' N Station romma n°73
 

Détail journalier du     <<     >>

Température Humidité Vent Dir Rafale Dir. rafale Ensol.
Heure (°C) (%) (km/h) (km/h) (min)
01:00 3.57820S35S0
02:00 3.67820SSO34SSO0
03:00 3.77514S29S0
04:00 3.7746SSO15SSO0
05:00 3.47612S19SSE0
06:00 3.1768S11S0
07:00 2.8779S10S0
08:00 2.9778S11S0
09:00 3.3769SSE13SSE0
10:00 4.1745SSE11SSE60
11:00 4.1783SSE13SSE60
12:00 3.6786SSE13SSE60
13:00 4.7764SSE10SSE60
14:00 4.2804SSE11SSE60
15:00 3.8778SSE16SSE60
16:00 4.6736SSE13SSE40
17:00 3.9777SSO15SSO0
18:00 3.57313S26S0
19:00 3.37410SSO18SO0
20:00 2.88616OSO24SO0
21:00 3.28625SO39SO0
22:00 3.38331SO45SO0
23:00 3.28032SSO45SSO0
minuit 2.88336SSO53SSO0

Graphique du 16-01-2020

 

Serveur OMMA